• Join FlightAware (Why Join?)
  • Login
  • US Flag GB Flag 
15:59 EST


 

Airport Tracker/Info


-or-


 

Live Flight TrackerFlight Track Log ✈ AWE1262 ✈ 29-Apr-2013 ✈ KPHL - KMHT

Flight Track Log - Related Links

Times and Time Zones

All times are in EDT time to prevent confusion due to time zone crossing. See the AWE1262 flight status page for this flight to view local times or setup timezone preferences in your user account.

Time Position Orientation Groundspeed Altitude Reporting Facility
EDT Latitude Longitude Course Direction KTS MPH feet Rate Location/Type
21:40 39.8833 -75.2167 37° Northeast 143 165 1,100  Level Philadelphia TRACON
21:40 39.8667 -75.1667 113° Southeast 203 234 2,700 2,340 Climbing Philadelphia TRACON
21:41 39.8667 -75.0833 90° East 250 288 5,400 3,180 Climbing Philadelphia TRACON
21:42 39.8119 -74.8427 105° East  Level FlightAware Approximate
21:42 39.8500 -75.0000 105° East 266 306 8,800  Level Philadelphia TRACON
21:43 39.7856 -74.7114 105° East  Level FlightAware Approximate
21:44 39.8588 -74.6246 37° Northeast  Level FlightAware Approximate
21:45 39.9449 -74.5551 37° Northeast  Level FlightAware Approximate
21:45 39.8039 -74.7700 105° East 315 362 12,500  Level New York Center
21:46 39.8642 -74.6492 57° Northeast 332 382 15,900 3,060 Climbing New York Center
21:47 39.9461 -74.5697 37° Northeast 336 387 18,700 2,520 Climbing New York Center
21:48 40.0300 -74.4847 38° Northeast 363 418 21,000 2,280 Climbing New York Center
21:49 40.1203 -74.3972 37° Northeast 391 450 23,300 1,680 Climbing New York Center
21:50 40.2250 -74.3131 32° Northeast 408 470 24,400 1,380 Climbing New York Center
21:51 40.3275 -74.2286 32° Northeast 429 494 26,100 1,320 Climbing New York Center
21:53 40.5700 -74.0247 33° Northeast 456 525 29,000 840 Climbing Boston Center
21:54 40.6814 -73.9397 30° Northeast 456 525 29,000  Level Boston Center
21:55 40.7972 -73.8575 28° Northeast 461 531 29,000  Level Boston Center
21:56 40.9247 -73.8244 11° North 455 524 29,000  Level Boston Center
21:58 41.0863 -73.7833 North  Level FlightAware Approximate
21:58 41.1736 -73.7556 North 455 524 29,000  Level Boston Center
22:00 41.4475 -73.6808 12° North 450 518 27,700 -660 Descending Boston Center
22:01 41.5644 -73.6525 10° North 438 504 27,000 -360 Descending Boston Center
22:02 41.6856 -73.6214 11° North 433 498 27,000 -360 Level Boston Center
22:03 41.8047 -73.5903 11° North 433 498 26,300 -1,320 Descending Boston Center
22:04 41.9014 -73.5000 35° Northeast 408 470 24,400 -1,800 Descending Boston Center
22:05 41.9858 -73.3869 45° Northeast 418 481 22,700 -1,500 Descending Boston Center
22:06 42.0511 -73.3011 44° Northeast 418 481 21,400 -900 Descending Boston Center
22:07 42.1481 -73.1708 45° Northeast 406 467 21,000 -360 Descending Boston Center
22:08 42.2319 -73.0597 44° Northeast 406 467 20,700 -780 Descending Boston Center
22:09 42.3117 -72.9539 44° Northeast 406 467 19,500 -900 Descending Boston Center
22:10 42.3975 -72.8336 46° Northeast 406 467 19,000 -300 Descending Boston Center
22:11 42.4689 -72.7356 45° Northeast 401 461 19,000 -240 Level Boston Center
22:12 42.5544 -72.6206 45° Northeast 401 461 18,600 -1,200 Descending Boston Center
22:13 42.6214 -72.5303 45° Northeast 390 449 16,600 -2,100 Descending Boston Center
22:14 42.6881 -72.4231 50° Northeast 376 433 14,400 -1,980 Descending Boston Center
22:15 42.7214 -72.3044 69° East 345 397 12,700 -1,560 Descending Boston Center
22:16 42.7503 -72.1828 72° East 311 358 11,300 -1,380 Descending Boston Center
22:17 42.7792 -72.0950 66° East 292 336 10,000 -1,740 Descending Boston Center
22:18 42.8353 -72.0042 50° Northeast 284 327 7,900 -1,920 Descending Boston Center
22:19 42.8806 -71.9331 49° Northeast 277 319 6,200 -1,920 Descending Boston Center
22:20 42.9344 -71.8444 50° Northeast 277 319 4,100 -1,380 Descending Boston Center
22:21 42.9758 -71.7761 50° Northeast 267 307 3,500 -540 Descending Boston Center
22:22 43.0169 -71.7103 49° Northeast 223 257 3,100 -240 Descending Boston Center
22:23 43.0417 -71.6531 59° Northeast 193 222 3,100  Level Boston Center
22:24 43.0411 -71.5736 91° East 178 205 3,100 -300 Level Boston Center
22:25 43.0406 -71.5111 91° East 178 205 2,600 -660 Descending Boston Center
22:26 43.0069 -71.4806 146° Southeast 140 161 1,800 -780 Descending Boston Center
22:27 42.9778 -71.4611 154° Southeast 132 152 1,100 -780 Descending Boston Center
22:28 42.9400 -71.4389 157° South 132 152 300 -420 Descending Boston Center
22:29 42.9064 -71.4197 157° South 132 152 300  Level Boston Center